METEOR 2-11 DEB

Satellite information

Favourite Embed

Satellite Type and Status

DEBRISIN ORBIT

Key statistics

Satellite METEOR 2-11 DEB at a glance.

Uptime

15041

Days in orbit

Revolutions

≈ 14.0

Per day

Orbit

LEO

Low Earth Orbit

Inclination

82.5

Latest

Satellite identification and parameters

Extended collection of information and parameters for METEOR 2-11 DEB.

Object identification

Identified? True

Debris? True

Object name: METEOR 2-11 DEB

International designator: 1984-072F

Object number (NORAD): 40704

Object ID (CCSDS): 40704

Country: COMMONWEALTH OF INDEPENDENT STATES (CIS)

Current information (Y/N): Y

RCS size: SMALL

Orbital parameters

Period: 103.033 minutes

Inclination: 82.5158 deg

SMA: 7280.199 km

Apoapsis: 925.023 km

Periapsis: 879.104 km

RAAN: 264.1986 deg

Eccentricy: 0.0031537

Argument of periapsis: 156.4461 deg

Mean anomaly: 203.8159 deg

Mean motion: 13.9761614 rev/day

Mean motion (dot): 0.00000449 rev/day2

B* drag term: 0.00030636 1/REarth

Two-line elements (TLE)

Creation date: Aug. 15, 2025, 10:36 p.m.

Reference frame: TEME

Reference center: EARTH

Epoch: Aug. 4, 2025, 10:40 a.m. UTC

TLE line 0: 0 METEOR 2-11 DEB

TLE line 1: 1 40704U 84072F 25216.44457296 .00000449 00000-0 30636-3 0 9991

TLE line 2: 2 40704 82.5158 264.1986 0031537 156.4461 203.8159 13.97616140523116

Live tracking on map

Real-time ground track for satellite METEOR 2-11 DEB.

In-orbit conjunctions

A list of the most updated potential collisions computed for object METEOR 2-11 DEB.

Target Orbit TCA Probability of collision Miss distance Type
SL-3 R/B LEO 2025-06-18 17:58:58 0.0001973746 242.0 (m) ROCKET BODY

Associated space launch

Second generation soviet meteorological satellite

METEOR 2-11 DEB was lifted into orbit during the mission ‘Tsiklon-3 | Meteor-2 11’, on board a Tsiklon-3 space rocket.

The launch took place on July 5, 1984, 3:35 a.m. from 32/2.

For more information about the launch, click the button.

Launch to space Tsiklon-3 | Meteor-2 11
Tsiklon-3 | Meteor-2 11

Agency: N/A

Status: Launch Successful

Launch date: July 5, 1984, 3:35 a.m. UTC

Rocket: Tsiklon-3

Launch pad: 32/2

Location: Plesetsk Cosmodrome, Russian Federation

...

Latest news about this satellite

There are no fresh news available about this satellite. Check back as we update our databases every day.


Newsletter sign-up

Weekly statistics, charts and insights to help you stay on top of the space industry.